Air Resources Laboratory banner image
Air Resources Laboratory web site National Oceanic and Atmospheric Administration (NOAA)

ct roundup


Office: OKX

ASUS41 KOKX 191105
RWROKX

Regional Weather Roundup
National Weather Service New York NY
700 AM EDT THU JUL 19 2018

Note: "FAIR" indicates few or no clouds below 12,000 feet with no
significant weather and/or obstructions to visibility.

NYZ071-072-176-178-NJZ106-104-191200-
New York City Metro Area

CITY           SKY/WX    TMP DP  RH WIND       PRES   REMARKS
Central Park   FAIR      67  51  56 CALM      30.10R
Bronx Bot Gard NOT AVBL
Bronx Lehman C   N/A     66  50  55 N5          N/A
LaGuardia Arpt FAIR      69  50  50 NE8       30.06R
Queens College   N/A     66  54  63 N7          N/A
Kennedy Intl   FAIR      68  54  60 N9        30.07R
Breezy Point     N/A     68 N/A N/A N8          N/A
Brooklyn Coll    N/A     70  50  49 N10         N/A
Staten Island    N/A     66  54  63 N9          N/A
Newark/Liberty FAIR      67  52  58 N9        30.07R
Teterboro      FAIR      65  54  67 CALM      30.06R
$$

NYZ177-179-078>081-191200-
Long Island New York

CITY           SKY/WX    TMP DP  RH WIND       PRES   REMARKS
Jones Beach      N/A     66 N/A N/A N9          N/A
Wantagh          N/A     66  55  68 N6          N/A
Hempstead        N/A     66  55  68 N3        30.09S
Matinecock Pt    N/A     66 N/A N/A NE10        N/A
Farmingdale    FAIR      65  56  72 N8        30.06R
MacArthur/ISP  FAIR      66  57  72 N8        30.06R
Stony Brook      N/A     66  55  68 NE2         N/A
Shirley        FAIR      65  56  72 N5        30.06R
Mt Sinai Harb    N/A     68 N/A N/A N10         N/A
Westhampton    FAIR      66  53  63 N5        30.07R
East Hampton   FAIR      63  55  75 CALM      30.05R
Southold         N/A     64  54  68 NE3         N/A
Montauk          N/A     67  55  65 NE7       30.06S
$$

NYZ052-065-067-191200-
Hudson Valley

CITY           SKY/WX    TMP DP  RH WIND       PRES   REMARKS
White Plains   FAIR      64  49  57 N5        30.08R
Larchmont Harb   N/A     64 N/A N/A N8          N/A
Croton On Huds   N/A     63 N/A N/A CALM        N/A
Somers           N/A     61  48  63 N2          N/A
Brewster         N/A     55  50  82 N1          N/A
Newburgh       SUNNY     59  55  88 CALM      30.11R
Montgomery     FAIR      55  53  93 CALM      30.10R
Otisville        N/A     54  52  94 S1          N/A
Warwick          N/A     54  54 100 N1          N/A
Suffern          N/A     63  50  63 N2          N/A
Poughkeepsie   FAIR      56  52  86 CALM      30.09R
Albany         FAIR      59  52  77 CALM      30.12R
$$

NJZ001-105-106-008-010-013-015-019>022-104-191200-
New Jersey

CITY           SKY/WX    TMP DP  RH WIND       PRES   REMARKS
Newark/Liberty FAIR      67  52  58 N9        30.07R
Teterboro      FAIR      65  54  67 CALM      30.06R
Caldwell       FAIR      61  55  81 NE3       30.09R
Somerville     FAIR      57  56  96 CALM      30.06S
Linden         NOT AVBL
Perth Amboy      N/A     66 N/A N/A N7G13       N/A
Sussex         FAIR      53  53 100 CALM      30.11R
Andover          N/A     54  54 100 CALM      30.11R
Trenton        FAIR      62  53  72 NW7       30.06S
Millville      FAIR      65  55  70 N6        30.06R
Atlantic City  FAIR      64  56  75 N6        30.05R
Wrightstown    FAIR      63  55  75 N3        30.04
Toms River     FAIR      62  54  74 N3        30.06R
Belmar         FAIR      63  55  75 NW3       30.07R
$$

PAZ047>061-062-071-191200-
Eastern Pennsylvania

CITY           SKY/WX    TMP DP  RH WIND       PRES   REMARKS
Philadelphia   FAIR      66  50  56 N7        30.07R
Allentown      FAIR      58  52  80 CALM      30.09S
Scranton       FAIR      52  48  86 E7        30.13S
$$

CTZ002-004>006-009-010-012-RIZ004-006-007-MAZ004-011-015-191200-
Southern New England

 In CT

CITY           SKY/WX    TMP DP  RH WIND       PRES   REMARKS
Bradley Intl   FAIR      59  52  77 N3        30.09R
Hartford       FAIR      61  55  81 N6        30.09R
Danbury        FAIR      57  55  93 CALM      30.10R
Wtrbury/Oxford FAIR      61  48  62 NE8       30.10R
Norwalk Harbor   N/A     63 N/A N/A N9          N/A
Bridgeport     FAIR      66  51  58 N6        30.07R
Meriden        FAIR      61  52  72 N5        30.09R
New Haven      FAIR      64  52  64 N9        30.07R
Chester        FAIR      63  50  63 NW7       30.08R
Groton         FAIR      62  52  69 N8        30.05S
Willimantic    FAIR      57  52  83 CALM      30.09R

 In RI

CITY           SKY/WX    TMP DP  RH WIND       PRES   REMARKS
Providence     FAIR      64  49  57 N7        30.07R
Block Island   FAIR      65  56  72 NE5       30.06R
Westerly       FAIR      63  54  72 VRB3      30.06R

In MA

CITY           SKY/WX    TMP DP  RH WIND       PRES   REMARKS
Boston         FAIR      66  49  54 NW9       30.06R
Worcester      SUNNY     63  45  51 N5        30.09R
Westfield      FAIR      57  54  89 CALM      30.09R
Provincetown   FAIR      67  60  78 N5        30.05R
Nantucket      FAIR      66  60  81 NE10      30.02R
$$

ANZ330-335-338-340-345-350-353-355-191200-
Coastal Marine Observations


STATION/POSITION TIME  SKY/WX   TEMP    WIND        PRES    VSBY  WAVE
                                AIR SEA DIR/SP/G                  HT/PER
                 (UTC)          (F)     (DEG/KT/KT) (MB)    (MI)  (FT/S)
NY Harb Entrance 1050            70 74   30/ 14/ 16 1017.2          2/ 7
20 S Fire Island 1050            72 73   30/ 12/ 14 1017.2          3/ 7
Great South Bay  1030            69 78   20/ 10/ 12   N/A
23 SSW Montauk P 1050            68 72   10/ 14/ 17 1017.3          3/ 9
15 E Barnegat Li 1030               75                N/A           3/ 8
Hudson Canyon    1050            74      10/ 10/ 12 1015.7          3/ 7
Kings Point      1048            67 69   70/  7/  9 1019.1
Execution Rocks  NOT AVBL
Western LI Sound 0950            67      30/  8/ 10   N/A           0
Central LI Sound 1030            67      20/ 12/ 14   N/A           1
Robbins Reef     1048            68     350/ 11/ 12 1018.5
$$


>>>>>>>>>>>>>>>>>>>>>>>>>>>> KEY <<<<<<<<<<<<<<<<<<<<<<<<<<<
>                                                          <
>     SKY/WX - Sky Condition/Present Weather               <
>     TMP    - Temperature in Fahrenheit                   <
>     DP     - Dew Point in Fahrenheit                     <
>     RH     - Relative Humidity in Percent                <
>     WIND   - Direction (from) and Speed in MPH           <
>     PRES   - Mean Sea Level Pressure (inches of Hg)      <
>     WCI    - Wind Chill Index                            <
>     VSB    - Visibility in Miles                         <
>     HX     - Heat Index                                  <
>     TC     - Temperature in Celsius                      <
>     VRB    - Varibale Wind Direction                     <
>                                                          <
>>>>>>>>>>>>>>>>>>>>>>>>>>>> KEY <<<<<<<<<<<<<<<<<<<<<<<<<<<




Office: BOX ASUS41 KBOX 191110 RWRBOX REGIONAL WEATHER ROUNDUP NATIONAL WEATHER SERVICE BOSTON/NORTON MA 700 AM EDT THU JUL 19 2018 NOTE: "FAIR" INDICATES FEW OR NO CLOUDS BELOW 12,000 FEET WITH NO SIGNIFICANT WEATHER AND/OR OBSTRUCTIONS TO VISIBILITY. MAZALL-191200- EASTERN MASSACHUSETTS CITY SKY/WX TMP DP RH WIND PRES REMARKS BOSTON FAIR 66 49 54 NW9 30.06R BEVERLY FAIR 61 54 77 NW5 30.06R LAWRENCE FAIR 63 50 62 W3 30.08S BEDFORD FAIR 58 52 80 CALM 30.06R BLUE HILL N/A 58 50 75 N9 30.06R NORWOOD FAIR 58 56 93 CALM 30.06R MARSHFIELD FAIR 66 55 68 NW5 30.05R PLYMOUTH FAIR 63 56 78 N5 30.05R TAUNTON FAIR 60 55 83 CALM 30.05R NEW BEDFORD FAIR 61 55 81 VRB3 30.04R $$ MAZALL-191200- CAPE COD AND THE ISLANDS CITY SKY/WX TMP DP RH WIND PRES REMARKS FALMOUTH FAIR 64 59 82 N7 30.05R HYANNIS FAIR 69 59 70 N6 30.02S CHATHAM FAIR 68 56 65 NE5 30.04R PROVINCETOWN FAIR 67 60 78 N5 30.05R NANTUCKET FAIR 66 60 81 NE10 30.02R MARTHAS VNYRD FAIR 63 61 93 N6 30.04R $$ MAZALL-191200- CENTRAL AND WESTERN MASSACHUSETTS CITY SKY/WX TMP DP RH WIND PRES REMARKS WORCESTER SUNNY 63 45 51 N5 30.09R FITCHBURG FAIR 57 53 86 N5 30.09R ORANGE FAIR 54 51 90 CALM 30.11S SPRINGFIELD SUNNY 55 51 86 CALM 30.08R WESTFIELD FAIR 57 54 89 CALM 30.09R NORTH ADAMS FAIR 50 48 93 CALM 30.13R PITTSFIELD N/A N/A N/A N/A MISG 30.11R $$ RIZALL-191200- RHODE ISLAND CITY SKY/WX TMP DP RH WIND PRES REMARKS PROVIDENCE FAIR 64 49 57 N7 30.07R NEWPORT FAIR 63 53 70 N6 30.05R BLOCK ISLAND FAIR 65 56 72 NE5 30.06R SMITHFIELD FAIR 61 49 64 N6 30.08R WESTERLY FAIR 63 54 72 VRB3 30.06R $$ CTZALL-191200- CONNECTICUT CITY SKY/WX TMP DP RH WIND PRES REMARKS BRADLEY INTL FAIR 59 52 77 N3 30.09R HARTFORD FAIR 61 55 81 N6 30.09R BRIDGEPORT FAIR 66 51 58 N6 30.07R DANBURY FAIR 57 55 93 CALM 30.10R GROTON FAIR 62 52 69 N8 30.05S NEW HAVEN FAIR 64 52 64 N9 30.07R CHESTER FAIR 63 50 63 NW7 30.08R MERIDEN FAIR 61 52 72 N5 30.09R WILLIMANTIC FAIR 57 52 83 CALM 30.09R OXFORD FAIR 61 48 62 NE8 30.10R $$ MEZ002-015-021-024-NHZ003-005-008-011-012-014-VTZ005-008-191200- NORTHERN NEW ENGLAND CITY SKY/WX TMP DP RH WIND PRES REMARKS PORTLAND ME FAIR 61 51 70 NW5 30.05R BANGOR ME FAIR 57 52 83 CALM 30.04R CONCORD NH FAIR 52 50 93 CALM 30.09R MANCHESTER NH FAIR 60 50 69 VRB5 30.07R NASHUA NH FAIR 57 52 83 NW5 30.09R PORTSMOUTH NH SUNNY 59 51 77 W3 30.05 JAFFREY NH FAIR 50 49 96 CALM 30.10S KEENE NH CLOUDY 52 52 100 CALM 30.12R FOG BURLINGTON VT FAIR 55 48 77 CALM 30.10R MT. WASHINGTON MOSUNNY 39 32 75 N23 N/A WCI 29 $$ NYZ052-076-191200- EASTERN NEW YORK CITY SKY/WX TMP DP RH WIND PRES REMARKS ALBANY FAIR 59 52 77 CALM 30.12R NEW YORK CITY FAIR 69 50 50 NE8 30.06R $$ ANZALL-191200- MARINE OBSERVATIONS STATION/POSITION TIME TEMP WIND PRES VSBY WAVE AIR SEA DIR/SP/G HT/PER (UTC) (F) (DEG/KT/KT) (MB) (MI) (FT/S) BOSTON BUOY 1050 64 67 330/ 10/ 10 1017.1R 2/ 8 BUZZARDS BAY 1000 65 10/ 12/ 13 1017.3R NANTUCKET SOUND 1050 69 73 20/ 12/ 16 1016.6R 1/ 3 MASS BAY-STELLWA 1004 65 65 340/ 8/ 10 1015.7R 2/ 8 ISLE OF SHOALS 1000 61 320/ 12/ 12 1016.9R S OF BLOCK IS 1043 72 N/A 3/ 8 $$ ......................KEY......................... SKY/WX - SKY CONDITION/PRESENT WEATHER TMP - TEMPERATURE IN FAHRENHEIT DWPT - DEWPOINT IN FAHRENHEIT RH - RELATIVE HUMIDITY IN PERCENT WIND - DIRECTION AND SPEED IN MPH PRES - MEAN SEA LEVEL PRESSURE IN INCHES OF HG WCI - WIND CHILL INDEX VSB - VISIBILITY IN MILES HX - HEAT INDEX TC - TEMPERATURE IN CELSIUS VRB - VARIABLE WIND DIRECTION N/A - NOT AVAILABLE